User: anonymous   Login
Location: Unspecified
(0.0000°N, 0.0000°E)
Time: 21:24:44
(UTC+00:00)
Language:

WGS F2 (USA 204) - Orbit

View from above orbital plane
View from above orbital plane
View from above satellite
View from above satellite

Ground track
Ground track

The orbit data is extracted from the following two-line orbital elements,

1 34713U 09017A   20048.16924396  .00000032  00000-0  00000+0 0  9993
2 34713   0.0178 109.9528 0001287 232.6035 285.1594  1.00269480 39757
Epoch (UTC): 17 February 2020 04:03:42
Eccentricity: 0.0001287
inclination: 0.0178°
perigee height: 35781 km
apogee height: 35792 km
right ascension of ascending node: 109.9528°
argument of perigee: 232.6035°
revolutions per day: 1.00269480
mean anomaly at epoch: 285.1594°
orbit number at epoch: 3975

The dashed part of the orbit path shows where the satellite is in the earth's shadow,  

DLR